Weather History for KDAW - April, 2013

Change the Weather History Date:

Monday, April 8, 2013

  Actual Average (KSFM) Record (KSFM)
Temperature  
Mean Temperature 50 °F -  
Max Temperature 62 °F 49 °F 69 °F (1999)
Min Temperature 39 °F 28 °F 19 °F (2011)
Degree Days  
Heating Degree Days 14    
Moisture  
Dew Point 35 °F    
Average Humidity 59    
Maximum Humidity 89    
Minimum Humidity 29    
Precipitation  
Precipitation 0.00 in - - ()
Sea Level Pressure  
Sea Level Pressure 30.01 in    
Wind  
Wind Speed 4 mph (NW)    
Max Wind Speed 21 mph    
Max Gust Speed 30 mph    
Visibility 10 miles    
Events      
Averages and records for this station are not official NWS values.
T = Trace of Precipitation, MM = Missing Value Source: NWS Daily Summary

Daily Weather History Graph

Daily Weather History Graph

Search for Another Location

Airport or City:

Trip Planner

Search our weather history database for the weather conditions in past years. The results will help you decide how hot, cold, wet, or windy it might be!

Date:

Astronomy

Apr. 08, 2013 Rise Set
Actual Time 6:12 AM EDT 7:18 PM EDT
Civil Twilight 5:43 AM EDT 7:47 PM EDT
Nautical Twilight 5:08 AM EDT 8:22 PM EDT
Astronomical Twilight 4:32 AM EDT 8:59 PM EDT
Moon 5:03 AM EDT (4/8) 5:48 PM EDT (4/8)
Length of Visible Light 14h 04m
Length of Day
13h 05m
Waning Crescent, 3% of the Moon is Illuminated
Apr 8
Waning Crescent
Apr 10
New
Apr 18
First Quarter
Apr 25
Full
May 2
Last Quarter

Hourly Weather History & Observations

Time (EDT) Temp. Windchill Dew Point Humidity Pressure Visibility Wind Dir Wind Speed Gust Speed Precip Events Conditions
12:51 AM 44.1 °F - 36.0 °F 73% 29.95 in 10.0 mi Calm Calm - N/A   Mostly Cloudy
1:51 AM 44.1 °F - 37.0 °F 76% 29.93 in 10.0 mi Calm Calm - N/A   Clear
2:51 AM 43.0 °F - 37.0 °F 80% 29.92 in 10.0 mi Calm Calm - N/A   Clear
3:51 AM 42.1 °F - 37.0 °F 82% 29.92 in 10.0 mi Calm Calm - N/A   Clear
4:51 AM 41.0 °F - 37.0 °F 86% 29.91 in 10.0 mi Calm Calm - N/A   Clear
5:51 AM 39.9 °F - 37.0 °F 89% 29.94 in 10.0 mi Calm Calm - N/A   Clear
6:51 AM 44.1 °F 40.8 °F 37.9 °F 79% 29.95 in 10.0 mi Variable 5.8 mph - N/A   Clear
7:51 AM 50.0 °F - 37.0 °F 61% 29.96 in 10.0 mi NW 16.1 mph 24.2 mph N/A   Clear
8:51 AM 51.1 °F - 34.0 °F 52% 29.97 in 10.0 mi NW 20.7 mph 29.9 mph N/A   Clear
9:51 AM 54.0 °F - 33.1 °F 45% 29.99 in 10.0 mi NW 16.1 mph 21.9 mph N/A   Clear
10:51 AM 54.0 °F - 33.1 °F 45% 30.02 in 10.0 mi NNW 13.8 mph 24.2 mph N/A   Clear
11:51 AM 55.0 °F - 33.1 °F 43% 30.03 in 10.0 mi NW 10.4 mph 18.4 mph N/A   Clear
12:51 PM 57.0 °F - 32.0 °F 39% 30.03 in 10.0 mi Variable 4.6 mph - N/A   Clear
1:51 PM 59.0 °F - 30.9 °F 35% 30.02 in 10.0 mi WNW 6.9 mph - N/A   Clear
2:51 PM 61.0 °F - 28.9 °F 30% 30.03 in 10.0 mi North 10.4 mph - N/A   Clear
3:51 PM 61.0 °F - 30.0 °F 31% 30.01 in 10.0 mi East 3.5 mph - N/A   Clear
4:51 PM 62.1 °F - 28.9 °F 29% 30.03 in 10.0 mi Calm Calm - N/A   Clear
5:51 PM 55.9 °F - 36.0 °F 47% 30.03 in 10.0 mi ESE 9.2 mph - N/A   Clear
6:51 PM 52.0 °F - 35.1 °F 53% 30.05 in 10.0 mi SSE 6.9 mph - N/A   Clear
7:51 PM 48.0 °F - 35.1 °F 61% 30.08 in 10.0 mi SSE 4.6 mph - N/A   Clear
8:51 PM 46.9 °F - 35.1 °F 63% 30.10 in 10.0 mi South 4.6 mph - N/A   Clear
9:51 PM 45.0 °F - 36.0 °F 71% 30.10 in 10.0 mi Calm Calm - N/A   Clear
10:51 PM 44.1 °F - 36.0 °F 73% 30.11 in 10.0 mi Calm Calm - N/A   Clear
11:51 PM 42.1 °F - 35.1 °F 76% 30.09 in 10.0 mi Calm Calm - N/A   Clear